TimeNZST,TemperatureF,Dew PointF,Humidity,Sea Level PressureIn,VisibilityMPH,Wind Direction,Wind SpeedMPH,Gust SpeedMPH,PrecipitationIn,Events,Conditions,WindDirDegrees,DateUTC
12:00 AM,41.0,26.6,57,30.01,6.2,SW,15.0,-,N/A,Rain,Light Rain Showers,230,2013-05-28 12:00:00
1:00 AM,39.2,26.6,61,30.04,6.2,WSW,18.4,-,N/A,,Mostly Cloudy,240,2013-05-28 13:00:00
2:00 AM,37.4,26.6,65,30.06,6.2,SW,6.9,-,N/A,,Mostly Cloudy,220,2013-05-28 14:00:00
3:00 AM,39.2,26.6,61,30.06,6.2,West,5.8,-,N/A,,Mostly Cloudy,260,2013-05-28 15:00:00
4:00 AM,41.0,24.8,53,30.09,6.2,WSW,8.1,-,N/A,,Mostly Cloudy,250,2013-05-28 16:00:00
5:00 AM,42.8,24.8,49,30.09,6.2,WSW,11.5,-,N/A,,Mostly Cloudy,250,2013-05-28 17:00:00
6:00 AM,42.8,24.8,49,30.12,6.2,WSW,9.2,-,N/A,,Mostly Cloudy,250,2013-05-28 18:00:00
7:00 AM,41.0,23.0,49,30.12,-9999.0,West,8.1,-,N/A,,Clear,260,2013-05-28 19:00:00
8:00 AM,41.0,23.0,49,30.15,-9999.0,West,8.1,-,N/A,,Clear,270,2013-05-28 20:00:00
9:00 AM,41.0,24.8,53,30.18,-9999.0,West,9.2,-,N/A,,Clear,270,2013-05-28 21:00:00
10:00 AM,44.6,24.8,46,30.18,-9999.0,West,8.1,-,N/A,,Clear,280,2013-05-28 22:00:00
11:00 AM,48.2,26.6,43,30.18,-9999.0,West,8.1,-,N/A,,Clear,270,2013-05-28 23:00:00
12:00 PM,51.8,32.0,47,30.18,-9999.0,WNW,8.1,-,N/A,,Clear,290,2013-05-29 00:00:00
1:00 PM,53.6,32.0,44,30.18,-9999.0,West,8.1,-,N/A,,Clear,280,2013-05-29 01:00:00
2:00 PM,55.4,32.0,41,30.18,6.2,SW,11.5,-,N/A,,Partly Cloudy,230,2013-05-29 02:00:00
3:00 PM,53.6,33.8,47,30.18,6.2,SW,11.5,-,N/A,,Mostly Cloudy,230,2013-05-29 03:00:00
4:00 PM,53.6,33.8,47,30.18,-9999.0,SW,8.1,-,N/A,,Clear,230,2013-05-29 04:00:00
5:00 PM,48.2,35.6,62,30.21,-9999.0,WNW,4.6,-,N/A,,Clear,300,2013-05-29 05:00:00
6:00 PM,46.4,35.6,66,30.21,-9999.0,NW,2.3,-,N/A,,Clear,310,2013-05-29 06:00:00
7:00 PM,39.2,33.8,81,30.21,-9999.0,West,1.2,-,N/A,,Clear,260,2013-05-29 07:00:00
8:00 PM,37.4,33.8,87,30.24,-9999.0,Calm,Calm,-,N/A,,Clear,0,2013-05-29 08:00:00
9:00 PM,33.8,30.2,87,30.24,-9999.0,Calm,Calm,-,N/A,,Clear,0,2013-05-29 09:00:00
10:00 PM,33.8,30.2,87,30.27,-9999.0,NNW,2.3,-,N/A,,Clear,330,2013-05-29 10:00:00
11:00 PM,32.0,30.2,93,30.27,-9999.0,WSW,1.2,-,N/A,,Clear,250,2013-05-29 11:00:00